N1RMK Weather Reports


time (UTC)temp
C
wind
direction
speed
KPH
gust
KPH
rain 1hr
cm
rain 24hr
cm
rain mn
cm
humidity
%
barometer
mb
20260507191000 20 0.0 0.0 0.00 0.41 0.33 28 1005.4
20260507190500 19 0.0 0.0 0.00 0.41 0.33 28 1005.5
20260507190001 19 0.0 0.0 0.00 0.51 0.33 25 1005.5
20260507185500 20 0.0 0.0 0.00 0.51 0.33 26 1005.6
20260507185000 20 0.0 0.0 0.00 0.51 0.33 30 1005.6
20260507184500 20 0.0 0.0 0.00 0.51 0.33 30 1005.7
20260507184000 19 0.0 0.0 0.00 0.51 0.33 32 1005.7
20260507183500 19 0.0 0.0 0.00 0.51 0.33 30 1005.6
20260507183000 19 0.0 0.0 0.00 0.51 0.33 31 1005.7
20260507182500 19 0.0 0.0 0.00 0.51 0.33 30 1005.7
20260507181500 20 0.0 0.0 0.00 0.51 0.33 30 1005.8
20260507181000 19 0.0 0.0 0.00 0.51 0.33 32 1005.7
20260507180500 19 0.0 0.0 0.00 0.51 0.33 31 1005.6
20260507180000 19 0.0 0.0 0.00 0.51 0.33 35 1005.8
20260507175500 18 0.0 0.0 0.00 0.51 0.33 34 1006.0
20260507174500 19 0.0 0.0 0.00 0.51 0.33 31 1005.9
20260507174000 18 0.0 0.0 0.00 0.51 0.33 33 1006.0
20260507173500 18 0.0 0.0 0.00 0.51 0.33 32 1006.0
20260507173000 18 0.0 0.0 0.00 0.51 0.33 37 1006.2
20260507172500 18 0.0 0.0 0.00 0.51 0.33 33 1006.0
20260507172000 18 0.0 0.0 0.00 0.51 0.33 31 1006.0
20260507171500 18 0.0 0.0 0.00 0.51 0.33 33 1006.1
20260507171000 18 0.0 0.0 0.00 0.51 0.33 32 1006.2
20260507170500 18 0.0 0.0 0.00 0.51 0.33 38 1006.2
20260507170000 18 0.0 0.0 0.00 0.51 0.33 38 1006.3
20260507165500 18 0.0 0.0 0.00 0.51 0.33 38 1006.3
20260507164500 17 0.0 0.0 0.00 0.51 0.33 42 1006.6
20260507164000 17 0.0 0.0 0.00 0.51 0.33 39 1006.4
20260507163500 17 0.0 0.0 0.00 0.51 0.33 38 1006.4
20260507162500 17 0.0 0.0 0.00 0.51 0.33 46 1006.5
20260507162000 17 0.0 0.0 0.00 0.51 0.33 42 1006.5
20260507161000 17 0.0 0.0 0.00 0.51 0.33 40 1006.4
20260507160500 17 0.0 0.0 0.00 0.51 0.33 47 1006.6
20260507160000 16 0.0 0.0 0.00 0.51 0.33 45 1006.6
20260507155500 16 0.0 0.0 0.00 0.51 0.33 51 1006.8
20260507155000 16 0.0 0.0 0.00 0.51 0.33 45 1006.7
20260507154500 16 0.0 0.0 0.00 0.51 0.33 48 1006.9
20260507154000 16 0.0 0.0 0.00 0.51 0.33 51 1006.8
20260507153000 15 0.0 0.0 0.00 0.51 0.33 52 1006.8
20260507152000 15 0.0 0.0 0.00 0.51 0.33 56 1007.1
20260507150500 15 0.0 0.0 0.00 0.51 0.33 57 1007.0
20260507150000 14 0.0 0.0 0.00 0.51 0.33 59 1007.2
20260507145000 15 0.0 0.0 0.00 0.51 0.33 54 1007.2
20260507144500 15 0.0 0.0 0.00 0.51 0.33 60 1007.2
20260507144000 14 0.0 0.0 0.00 0.51 0.33 59 1007.3
20260507143500 14 0.0 0.0 0.00 0.51 0.33 60 1007.4
20260507142500 14 0.0 0.0 0.00 0.51 0.33 62 1007.4
20260507142000 13 0.0 0.0 0.00 0.51 0.33 64 1007.3
20260507141500 13 0.0 0.0 0.00 0.51 0.33 66 1007.5
20260507141000 13 0.0 0.0 0.00 0.51 0.33 64 1007.5
20260507140500 13 0.0 0.0 0.00 0.51 0.33 60 1007.6
20260507140000 13 0.0 0.0 0.00 0.51 0.33 62 1007.5
20260507135500 13 0.0 0.0 0.00 0.51 0.33 63 1007.7
20260507135000 12 0.0 0.0 0.00 0.51 0.33 67 1007.5
20260507134000 12 0.0 0.0 0.00 0.51 0.33 70 1007.6
20260507133500 12 0.0 0.0 0.00 0.51 0.33 72 1007.4
20260507133000 12 0.0 0.0 0.00 0.51 0.33 73 1007.5
20260507132500 12 0.0 0.0 0.00 0.51 0.33 77 1007.7
20260507132000 11 0.0 0.0 0.00 0.51 0.33 78 1007.5
20260507131500 11 0.0 0.0 0.00 0.51 0.33 79 1007.6
20260507131000 11 0.0 0.0 0.00 0.51 0.33 80 1007.8
20260507130500 11 0.0 0.0 0.00 0.51 0.33 81 1007.8
20260507130000 11 0.0 0.0 0.00 0.51 0.33 84 1007.8
20260507125500 10 0.0 0.0 0.00 0.51 0.33 85 1007.7
20260507125000 10 0.0 0.0 0.00 0.51 0.33 88 1007.8
20260507124500 10 0.0 0.0 0.00 0.51 0.33 86 1008.1
20260507124000 10 0.0 0.0 0.00 0.51 0.33 87 1008.0
20260507122500 10 0.0 0.0 0.00 0.51 0.33 90 1008.0
20260507122000 10 0.0 0.0 0.00 0.51 0.33 91 1007.8
20260507121500 10 0.0 0.0 0.00 0.51 0.33 92 1007.9
20260507121000 10 0.0 0.0 0.00 0.51 0.33 91 1008.0
20260507120500 10 0.0 0.0 0.00 0.51 0.33 93 1007.8
20260507120000 10 0.0 0.0 0.00 0.51 0.33 91 1007.8
20260507115500 10 0.0 0.0 0.00 0.51 0.33 91 1007.7
20260507115000 9 0.0 0.0 0.00 0.51 0.33 92 1008.0
20260507114500 9 0.0 0.0 0.00 0.51 0.33 92 1007.8
20260507114000 9 0.0 0.0 0.00 0.51 0.33 93 1007.9
20260507113500 9 0.0 0.0 0.00 0.51 0.33 92 1007.8
20260507113000 9 0.0 0.0 0.00 0.51 0.33 92 1007.7
20260507112500 9 0.0 0.0 0.00 0.51 0.33 92 1007.6
20260507112000 9 0.0 0.0 0.00 0.51 0.33 93 1007.7
20260507111500 9 0.0 0.0 0.00 0.51 0.33 92 1007.7
20260507111000 9 0.0 0.0 0.00 0.51 0.33 92 1007.7
20260507110500 9 0.0 0.0 0.00 0.51 0.33 92 1007.5
20260507110000 9 0.0 0.0 0.00 0.51 0.33 92 1007.4
20260507105000 9 0.0 0.0 0.03 0.51 0.33 92 1007.5
20260507104500 9 0.0 0.0 0.03 0.51 0.33 92 1007.5
20260507104000 9 0.0 0.0 0.05 0.51 0.33 92 1007.8
20260507103000 9 0.0 0.0 0.05 0.51 0.33 93 1007.7
20260507102500 9 0.0 0.0 0.08 0.51 0.33 93 1007.5
20260507102000 9 0.0 0.0 0.08 0.51 0.33 92 1007.4
20260507101500 9 0.0 0.0 0.10 0.51 0.33 93 1007.2
20260507101000 9 0.0 0.0 0.13 0.51 0.33 93 1007.0
20260507100500 8 0.0 0.0 0.15 0.48 0.33 92 1007.1
20260507100000 8 0.0 0.0 0.18 0.48 0.33 92 1007.1
20260507095500 9 0.0 0.0 0.20 0.48 0.33 92 1007.0
20260507095000 9 0.0 0.0 0.23 0.48 0.30 92 1006.9
20260507094000 9 0.0 0.0 0.23 0.46 0.28 90 1007.0
20260507093500 9 0.0 0.0 0.20 0.46 0.28 90 1006.9
20260507093000 9 0.0 0.0 0.20 0.43 0.25 89 1007.0
20260507092500 9 0.0 0.0 0.18 0.41 0.25 90 1006.9
20260507091500 9 0.0 0.0 0.18 0.41 0.23 90 1007.0
20260507091000 9 0.0 0.0 0.15 0.38 0.20 89 1007.2
20260507090500 9 0.0 0.0 0.13 0.33 0.15 89 1007.3
20260507090000 9 0.0 0.0 0.10 0.30 0.13 88 1007.4
20260507084500 10 0.0 0.0 0.05 0.25 0.08 87 1007.1
20260507084000 10 0.0 0.0 0.05 0.23 0.08 87 1007.3
20260507082500 10 0.0 0.0 0.08 0.23 0.08 86 1007.1
20260507082000 10 0.0 0.0 0.05 0.23 0.05 87 1006.9
20260507081000 10 0.0 0.0 0.05 0.20 0.05 85 1006.8
20260507080500 10 0.0 0.0 0.05 0.20 0.05 86 1007.0
20260507080000 11 0.0 0.0 0.05 0.20 0.05 85 1007.2
20260507075500 11 0.0 0.0 0.05 0.20 0.05 84 1006.9
20260507075000 11 0.0 0.0 0.03 0.20 0.03 84 1007.0
20260507074500 11 0.0 0.0 0.03 0.20 0.03 83 1006.9
20260507074000 11 0.0 0.0 0.03 0.20 0.03 82 1006.6
20260507073500 11 0.0 0.0 0.00 0.18 0.00 81 1006.7
20260507073000 12 0.0 0.0 0.00 0.18 0.00 80 1006.7
20260507072000 12 0.0 0.0 0.00 0.18 0.00 81 1006.3
20260507071500 12 0.0 0.0 0.00 0.18 0.00 82 1005.8
20260507071000 12 0.0 0.0 0.00 0.18 0.00 82 1005.8
20260507070000 12 0.0 0.0 0.00 0.18 0.00 82 1006.1
20260507065500 12 0.0 0.0 0.00 0.18 0.00 81 1006.0
20260507065000 12 0.0 0.0 0.00 0.18 0.00 81 1006.0
20260507064500 12 0.0 0.0 0.00 0.18 0.00 81 1006.0
20260507064000 12 0.0 0.0 0.00 0.18 0.00 82 1006.0
20260507063000 13 0.0 0.0 0.00 0.18 0.00 82 1006.1
20260507062500 13 0.0 0.0 0.00 0.18 0.00 82 1006.2
20260507061502 13 0.0 0.0 0.00 0.18 0.00 82 1006.0
20260507061000 13 0.0 0.0 0.00 0.18 0.00 83 1005.8
20260507060500 13 0.0 0.0 0.00 0.18 0.00 83 1005.9
20260507055500 13 0.0 0.0 0.00 0.18 0.00 82 1006.0
20260507055000 13 0.0 0.0 0.00 0.18 0.00 83 1006.1
20260507054500 13 0.0 0.0 0.00 0.18 0.00 83 1006.1
20260507053500 13 0.0 0.0 0.00 0.18 0.00 84 1006.5
20260507053000 13 0.0 0.0 0.00 0.18 0.00 83 1006.3
20260507052500 13 0.0 0.0 0.00 0.18 0.00 84 1006.3
20260507052000 13 0.0 0.0 0.00 0.18 0.00 85 1006.3
20260507051500 13 0.0 0.0 0.00 0.18 0.00 85 1006.0
20260507051000 14 0.0 0.0 0.00 0.18 0.00 83 1005.9
20260507045500 14 0.0 0.0 0.00 0.18 0.00 84 1005.9
20260507045000 14 0.0 0.0 0.00 0.18 0.00 84 1006.2
20260507044500 14 0.0 0.0 0.00 0.18 0.00 84 1006.2
20260507043500 15 0.0 0.0 0.00 0.18 0.00 87 1006.0
20260507043000 15 0.0 0.0 0.00 0.18 0.00 87 1006.0
20260507042500 15 0.0 0.0 0.00 0.18 0.00 90 1006.0
20260507042000 15 0.0 0.0 0.00 0.18 0.00 91 1006.1
20260507041500 15 0.0 0.0 0.00 0.18 0.00 91 1006.0
20260507041000 15 0.0 0.0 0.00 0.18 0.00 91 1006.0
20260507040500 15 0.0 0.0 0.00 0.18 0.00 91 1006.0
20260507035500 15 0.0 0.0 0.00 0.18 0.18 91 1006.3
20260507035000 15 0.0 0.0 0.00 0.18 0.18 91 1006.6
20260507034500 15 0.0 0.0 0.00 0.18 0.18 91 1006.2
20260507034000 15 0.0 0.0 0.00 0.18 0.18 92 1006.1
20260507033500 15 0.0 0.0 0.00 0.18 0.18 92 1006.0
20260507033000 15 0.0 0.0 0.00 0.18 0.18 92 1006.0
20260507032500 15 0.0 0.0 0.00 0.18 0.18 92 1005.8
20260507032000 15 0.0 0.0 0.00 0.18 0.18 92 1005.9
20260507031500 15 0.0 0.0 0.00 0.18 0.18 91 1005.5
20260507031000 15 0.0 0.0 0.00 0.18 0.18 91 1005.6
20260507030000 15 0.0 0.0 0.00 0.18 0.18 91 1005.6
20260507025500 -17 0.0 0.0 0.00 0.00 0.00
20260507025000 15 0.0 0.0 0.00 0.18 0.18 91 1005.2
20260507024500 15 0.0 0.0 0.00 0.18 0.18 91 1005.2
20260507024000 15 0.0 0.0 0.00 0.18 0.18 91 1005.6
20260507023500 15 0.0 0.0 0.00 0.18 0.18 91 1005.6
20260507023000 15 0.0 0.0 0.00 0.18 0.18 91 1005.6
20260507022500 15 0.0 0.0 0.00 0.18 0.18 91 1005.6
20260507022000 15 0.0 0.0 0.00 0.18 0.18 91 1005.6
20260507021500 15 0.0 0.0 0.00 0.18 0.18 91 1005.5
20260507021000 15 0.0 0.0 0.00 0.18 0.18 91 1005.4
20260507020500 15 0.0 0.0 0.00 0.18 0.18 91 1005.6
20260507020000 15 0.0 0.0 0.00 0.18 0.18 91 1005.6
20260507014500 15 0.0 0.0 0.00 0.18 0.18 91 1005.6
20260507014000 15 0.0 0.0 0.00 0.18 0.18 92 1005.5
20260507013500 15 0.0 0.0 0.00 0.18 0.18 92 1005.6
20260507013000 15 0.0 0.0 0.00 0.18 0.18 92 1005.9
20260507012500 15 0.0 0.0 0.00 0.18 0.18 92 1005.7
20260507012000 15 0.0 0.0 0.00 0.18 0.18 91 1006.0
20260507010500 14 0.0 0.0 0.00 0.18 0.18 92 1006.1
20260507010000 14 0.0 0.0 0.00 0.18 0.18 92 1006.1
20260507005500 14 0.0 0.0 0.00 0.18 0.18 92 1006.1
20260507005000 14 0.0 0.0 0.00 0.18 0.18 92 1006.2
20260507004500 14 0.0 0.0 0.00 0.18 0.18 92 1006.1
20260507004000 14 0.0 0.0 0.00 0.18 0.18 92 1006.1
20260507003500 14 0.0 0.0 0.03 0.18 0.18 91 1006.0
20260507003000 14 0.0 0.0 0.03 0.18 0.18 92 1005.9
20260507002000 14 0.0 0.0 0.03 0.18 0.18 92 1006.1
20260507001500 14 0.0 0.0 0.05 0.18 0.18 91 1005.9
20260507000500 14 0.0 0.0 0.05 0.18 0.18 91 1005.6
20260507000000 15 0.0 0.0 0.05 0.18 0.18 91 1005.5
20260506235500 15 0.0 0.0 0.05 0.18 0.18 91 1005.5
20260506235000 15 0.0 0.0 0.05 0.18 0.18 91 1005.6
20260506234500 15 0.0 0.0 0.05 0.18 0.18 91 1005.7
20260506234000 15 0.0 0.0 0.05 0.15 0.15 91 1005.7
20260506233000 15 0.0 0.0 0.03 0.15 0.15 90 1005.6
20260506232500 15 0.0 0.0 0.03 0.15 0.15 90 1005.5
20260506232000 15 0.0 0.0 0.03 0.15 0.15 90 1005.6
20260506231500 15 0.0 0.0 0.03 0.13 0.13 89 1005.5
20260506231000 15 0.0 0.0 0.00 0.13 0.13 89 1005.6
20260506230500 15 0.0 0.0 0.00 0.10 0.10 89 1005.7
20260506230000 15 0.0 0.0 0.00 0.10 0.10 88 1005.5
20260506225500 15 0.0 0.0 0.00 0.10 0.10 88 1005.6
20260506225000 15 0.0 0.0 0.00 0.10 0.10 88 1005.7
20260506224500 15 0.0 0.0 0.00 0.10 0.10 89 1005.7
20260506224000 15 0.0 0.0 0.00 0.10 0.10 88 1005.7
20260506223500 15 0.0 0.0 0.03 0.10 0.10 89 1005.9
20260506223000 15 0.0 0.0 0.03 0.10 0.10 89 1005.8
20260506222500 15 0.0 0.0 0.03 0.10 0.10 89 1005.9
20260506222000 15 0.0 0.0 0.03 0.10 0.10 88 1006.0
20260506221500 15 0.0 0.0 0.03 0.10 0.10 88 1005.9
20260506221000 15 0.0 0.0 0.03 0.10 0.10 88 1006.3
20260506220500 15 0.0 0.0 0.03 0.10 0.10 89 1006.3
20260506220000 15 0.0 0.0 0.03 0.10 0.10 89 1006.2
20260506215000 15 0.0 0.0 0.00 0.10 0.10 88 1006.3
20260506214500 16 0.0 0.0 0.00 0.10 0.10 87 1006.4
20260506213500 16 0.0 0.0 0.00 0.10 0.10 86 1006.5
20260506213000 16 0.0 0.0 0.00 0.10 0.10 85 1006.5
20260506212500 16 0.0 0.0 0.00 0.10 0.10 84 1006.6
20260506212000 16 0.0 0.0 0.00 0.10 0.10 84 1006.3
20260506211500 16 0.0 0.0 0.00 0.10 0.10 84 1006.4
20260506211000 16 0.0 0.0 0.00 0.10 0.10 84 1006.5
20260506210500 16 0.0 0.0 0.00 0.10 0.10 84 1006.6
20260506210000 16 0.0 0.0 0.00 0.10 0.10 84 1006.6
20260506205000 16 0.0 0.0 0.00 0.10 0.10 83 1006.4
20260506204500 16 0.0 0.0 0.03 0.10 0.10 83 1006.5
20260506204000 16 0.0 0.0 0.03 0.10 0.10 83 1006.7
20260506203500 16 0.0 0.0 0.03 0.10 0.10 82 1006.9
20260506203000 16 0.0 0.0 0.03 0.08 0.08 83 1006.7
20260506202500 16 0.0 0.0 0.05 0.08 0.08 83 1007.0
20260506202000 16 0.0 0.0 0.05 0.08 0.08 82 1006.8
20260506201500 16 0.0 0.0 0.05 0.08 0.08 82 1006.5
20260506201000 16 0.0 0.0 0.08 0.08 0.08 81 1006.9
20260506200500 17 0.0 0.0 0.08 0.08 0.08 81 1006.5
20260506200000 17 0.0 0.0 0.08 0.08 0.08 81 1006.5
20260506195500 17 0.0 0.0 0.08 0.08 0.08 80 1006.4
20260506195000 17 0.0 0.0 0.08 0.08 0.08 80 1006.6
20260506194500 17 0.0 0.0 0.08 0.08 0.08 79 1006.5
20260506194000 17 0.0 0.0 0.05 0.05 0.05 78 1006.6
20260506193000 17 0.0 0.0 0.05 0.05 0.05 77 1006.9
20260506192500 18 0.0 0.0 0.05 0.05 0.05 77 1006.8
20260506191500 18 0.0 0.0 0.03 0.03 0.03 71 1006.8